Weather History for KLHX - September, 2013

Change the Weather History Date:

Sunday, September 29, 2013

  Actual Average Record
Temperature  
Mean Temperature 62 °F 61 °F  
Max Temperature 84 °F 77 °F 96 °F (2010)
Min Temperature 39 °F 46 °F 28 °F (1985)
Degree Days  
Heating Degree Days 3 5  
Month to date heating degree days 12 63  
Since 1 July heating degree days 12 67  
Cooling Degree Days 0 1  
Month to date cooling degree days 247 137  
Year to date cooling degree days 1648 1215  
Growing Degree Days 12 (Base 50)    
Moisture  
Dew Point 25 °F    
Average Humidity 39    
Maximum Humidity 70    
Minimum Humidity 8    
Precipitation  
Precipitation 0.00 in 0.02 in 0.47 in (1959)
Month to date precipitation 0.71 0.80  
Year to date precipitation 4.72 9.88  
Sea Level Pressure  
Sea Level Pressure 29.89 in    
Wind  
Wind Speed 8 mph (WSW)    
Max Wind Speed 20 mph    
Max Gust Speed 22 mph    
Visibility 10 miles    
Events      
T = Trace of Precipitation, MM = Missing Value Source: NWS Daily Summary

Daily Weather History Graph

Daily Weather History Graph

Search for Another Location

Airport or City:

Trip Planner

Search our weather history database for the weather conditions in past years. The results will help you decide how hot, cold, wet, or windy it might be!

Date:

Astronomy

Sep. 29, 2013 Rise Set
Actual Time 6:48 AM MDT 6:39 PM MDT
Civil Twilight 6:21 AM MDT 7:05 PM MDT
Nautical Twilight 5:51 AM MDT 7:36 PM MDT
Astronomical Twilight 5:20 AM MDT 8:07 PM MDT
Moon 1:35 AM MDT (9/29) 3:33 PM MDT (9/29)
Length of Visible Light 12h 43m
Length of Day
11h 51m
Waning Crescent, 26% of the Moon is Illuminated
Sep 29
Waning Crescent
Oct 4
New
Oct 11
First Quarter
Oct 18
Full
Oct 26
Last Quarter

Hourly Weather History & Observations

Time (MDT) Temp. Windchill Dew Point Humidity Pressure Visibility Wind Dir Wind Speed Gust Speed Precip Events Conditions
12:53 AM 52.0 °F - 30.0 °F 43% 30.02 in 10.0 mi SW 8.1 mph - N/A   Clear
1:53 AM 50.0 °F - 28.9 °F 44% 30.01 in 10.0 mi SW 15.0 mph - N/A   Clear
2:53 AM 44.1 °F 40.8 °F 30.0 °F 58% 30.01 in 10.0 mi West 5.8 mph - N/A   Clear
3:53 AM 43.0 °F 37.2 °F 30.9 °F 62% 29.99 in 10.0 mi West 10.4 mph - N/A   Clear
4:53 AM 41.0 °F 33.5 °F 30.9 °F 67% 30.00 in 10.0 mi West 13.8 mph - N/A   Clear
5:53 AM 41.0 °F 33.9 °F 32.0 °F 70% 30.00 in 10.0 mi West 12.7 mph - N/A   Clear
6:53 AM 39.0 °F 34.0 °F 30.9 °F 73% 30.02 in 10.0 mi West 6.9 mph - N/A   Clear
7:53 AM 46.0 °F 42.5 °F 30.0 °F 54% 30.00 in 10.0 mi WSW 6.9 mph - N/A   Clear
8:53 AM 52.0 °F - 30.0 °F 43% 30.00 in 10.0 mi WNW 5.8 mph - N/A   Clear
9:53 AM 64.0 °F - 28.9 °F 27% 29.97 in 10.0 mi West 5.8 mph - N/A   Clear
10:53 AM 72.0 °F - 26.1 °F 18% 29.93 in 10.0 mi West 13.8 mph - N/A   Clear
11:53 AM 75.9 °F - 23.0 °F 14% 29.88 in 10.0 mi WSW 9.2 mph - N/A   Clear
12:53 PM 81.0 °F - 19.9 °F 10% 29.83 in 10.0 mi WSW 12.7 mph - N/A   Clear
1:53 PM 81.0 °F - 18.0 °F 10% 29.80 in 10.0 mi SSW 6.9 mph - N/A   Clear
2:53 PM 82.9 °F - 15.1 °F 8% 29.78 in 10.0 mi SW 12.7 mph 17.3 mph N/A   Clear
3:53 PM 82.9 °F - 15.1 °F 8% 29.77 in 10.0 mi SSW 6.9 mph - N/A   Clear
4:53 PM 84.0 °F - 15.1 °F 8% 29.76 in 10.0 mi West 5.8 mph - N/A   Clear
5:53 PM 82.0 °F - 15.1 °F 8% 29.75 in 10.0 mi Calm Calm - N/A   Clear
6:53 PM 73.0 °F - 21.0 °F 14% 29.80 in 10.0 mi East 9.2 mph - N/A   Clear
7:53 PM 68.0 °F - 23.0 °F 18% 29.81 in 10.0 mi SE 8.1 mph - N/A   Clear
10:53 PM 62.1 °F - 24.1 °F 23% 29.77 in 10.0 mi SSW 15.0 mph - N/A   Clear
11:53 PM 61.0 °F - 25.0 °F 25% 29.75 in 10.0 mi West 15.0 mph - N/A   Clear